Location: Newark
(44.0160°N, 116.9215°W)
Time: 02:37:59
(UTC+00:00)

Envisat - Pass Details

Date: 26 November 2019
Orbit: 764 x 766 km, 98.1° (Epoch: 06 December)

Event Time Altitude Azimuth Distance (km) Brightness Sun altitude
Rises 13:21:16 0° 31° (NNE) 3,239 6.5 -16.8°
Reaches altitude 10° 13:24:32 10° 53° (NE) 2,307 6.0 -16.2°
Maximum altitude 13:27:33 16° 89° (E) 1,934 6.2 -15.7°
Drops below altitude 10° 13:30:33 10° 126° (SE) 2,297 6.6 -15.1°
Sets 13:33:47 0° 148° (SSE) 3,217 7.0 -14.6°
